{"data":{"norad_id":63881,"epoch":"2026-05-25T02:34:49.945728Z","epoch_age_seconds":56018,"freshness":"FRESH","line1":"1 63881U 25094T   26145.10752252  .00002319  00000+0  20206-3 0  9995","line2":"2 63881  70.0023  41.6310 0002835 269.3338  90.7496 14.98333322 58654","mean_motion":14.98333322,"eccentricity":0.0002835,"inclination_deg":70.0023,"raan_deg":41.631,"arg_perigee_deg":269.3338,"mean_anomaly_deg":90.7496,"bstar":0.00020206,"rev_number":5865,"period_min":96.106786043967,"perigee_km":570.07524118024,"apogee_km":574.01599472462,"semimajor_km":6950.1826179524,"source":"CELESTRAK","updated_at":"2026-05-25T13:38:20.172743Z"}}